Content
SEND FEEDBACK

Daily
Averages
Monthly
Summary
United States of America

LENOIR, NORTH CAROLINA


Home > North America > United States > North Carolina
Elevation: 344 meters     Latitude: 35 55N     Longitude: 081 32W

WEATHER
 
SELECT A DAY
Number of Records: 204,981;   Date Range: 1/1/95 - 11/22/14
 
SHARE

PRINT THIS DATA

[ ← Previous Day ]
WEATHER ALMANAC - 31 JANUARY, 2013
[ Next Day → ]
[ °F ]   °C
Weather ElementAverageHighLow
Temperature4.3 °C8.3 °C (1:53 am)1.1 °C (10:53 pm)
Dewpoint-6.2 °C4.4 °C (1:53 am)-8.9 °C (3:53 pm)
Humidity47.8 %77 % (1:53 am)34 % (2:53 pm)
Barometer1010.5 hPa1015.2 hPa (7:53 pm)999.3 hPa (1:53 am)
Wind Speed18 km/h31.5 km/h (12:53 pm)
Wind Gust51.8 km/h (2:53 pm)
Weather ElementAverage
Visibility16.1 km
Wind DirectionWSW (251.3 °)

Weather ElementTotal
Precipitation0.51 mm
Heating Degree Days13.7 (Base 18.3)
Averaged from 23 records on 31 January, 2013
WEATHER CONDITIONS BREAKOUT
WIND DIRECTION BREAKOUT
WEATHER BY HOUR - 31 JANUARY, 2013
[ °F ]   °C
Local TimeTemperatureDewpointHumidityBarometerVisibilityWind DirectionWind SpeedGust SpeedPrecipitationEventsConditions
1:53 AM8.3 °C4.4 °C77 %999.3 hPa14.5 kmWSW (250°)16.7 km/h46.3 km/h0.51 mmRainLight Rain
2:53 AM6.7 °C0 °C63 %1000.7 hPa16.1 kmWest (280°)20.4 km/h37 km/h0 mmPartly Cloudy
3:53 AM5.6 °C-1.7 °C60 %1002.4 hPa16.1 kmWest (280°)25.9 km/h38.9 km/hClear
4:53 AM4.4 °C-2.8 °C60 %1004.4 hPa16.1 kmWNW (300°)25.9 km/h40.7 km/hClear
5:53 AM2.8 °C-5.6 °C54 %1006.1 hPa16.1 kmWest (280°)22.2 km/h38.9 km/hClear
6:53 AM1.7 °C-5.6 °C59 %1007.8 hPa16.1 kmWest (270°)18.5 km/h31.5 km/hPartly Cloudy
7:53 AM1.7 °C-7.8 °C50 %1009.1 hPa16.1 kmWNW (290°)27.8 km/h40.7 km/hClear
8:53 AM3.3 °C-6.7 °C48 %1010.2 hPa16.1 kmWest (270°)14.8 km/h33.3 km/hClear
9:53 AM3.9 °C-6.7 °C46 %1011.2 hPa16.1 kmWNW (290°)20.4 km/h37 km/hClear
10:53 AM5.6 °C-6.7 °C41 %1011.5 hPa16.1 kmWest (260°)27.8 km/h35.2 km/hClear
11:53 AM5 °C-7.8 °C40 %1011.9 hPa16.1 kmNW (320°)16.7 km/h42.6 km/hClear
12:53 PM6.7 °C-7.8 °C35 %1011.5 hPa16.1 kmWNW (290°)31.5 km/h38.9 km/hClear
1:53 PM7.2 °C-7.2 °C36 %1011.9 hPa16.1 kmNW (310°)20.4 km/h38.9 km/hClear
2:53 PM6.7 °C-8.3 °C34 %1012.9 hPa16.1 kmWNW (290°)27.8 km/h51.8 km/hClear
3:53 PM6.1 °C-8.9 °C34 %1013.9 hPa16.1 kmWest (280°)22.2 km/h40.7 km/hClear
4:53 PM5.6 °C-8.9 °C35 %1013.9 hPa16.1 kmWNW (290°)13 km/h27.8 km/hClear
5:53 PM4.4 °C-8.3 °C40 %1014.2 hPa16.1 kmWest (270°)14.8 km/hClear
6:53 PM3.9 °C-8.3 °C41 %1014.6 hPa16.1 kmWest (270°)13 km/hClear
7:53 PM3.9 °C-7.8 °C43 %1015.2 hPa16.1 kmWest (270°)16.7 km/hClear
8:53 PM2.8 °C-7.8 °C46 %1014.6 hPa16.1 kmSW (220°)7.4 km/hClear
9:53 PM1.7 °C-7.8 °C50 %1014.9 hPa16.1 kmCalmClear
10:53 PM1.1 °C-7.2 °C54 %1014.6 hPa16.1 kmCalmClear
11:53 PM1.1 °C-7.2 °C54 %1014.2 hPa16.1 kmSSW (200°)9.3 km/hClear
Hourly data recorded from KHKY, located 0 kilometers away from Lenoir, North Carolina







STORIES FROM OUR PARTNERS